| time (UTC) | temp C | wind direction | speed KPH | gust KPH | rain 1hr cm | rain 24hr cm | rain mn cm | humidity % | barometer mb |
| 20260504204614 | 21 | 49 | 3.2 | 3.2 | 0.00 | 0.00 | 0.00 | 49 | 1005.6 |
| 20260504204112 | 20 | 181 | 1.6 | 3.2 | 0.00 | 0.00 | 0.00 | 51 | 1005.7 |
| 20260504203610 | 20 | 341 | 3.2 | 4.8 | 0.00 | 0.00 | 0.00 | 50 | 1005.9 |
| 20260504203108 | 21 | 316 | 6.4 | 6.4 | 0.00 | 0.00 | 0.00 | 48 | 1005.8 |
| 20260504202602 | 20 | 315 | 9.7 | 12.9 | 0.00 | 0.00 | 0.00 | 49 | 1005.9 |
| 20260504202100 | 20 | 40 | 3.2 | 4.8 | 0.00 | 0.00 | 0.00 | 51 | 1005.8 |
| 20260504201556 | 20 | 45 | 1.6 | 1.6 | 0.00 | 0.00 | 0.00 | 50 | 1005.8 |
| 20260504201055 | 20 | 223 | 1.6 | 3.2 | 0.00 | 0.00 | 0.00 | 49 | 1005.9 |
| 20260504200550 | 20 | 14 | 1.6 | 1.6 | 0.00 | 0.00 | 0.00 | 50 | 1006.0 |
| 20260504200048 | 20 | 71 | 0.0 | 1.6 | 0.00 | 0.00 | 0.00 | 47 | 1005.9 |
| 20260504195543 | 21 | 48 | 1.6 | 1.6 | 0.00 | 0.00 | 0.00 | 47 | 1006.0 |
| 20260504195040 | 21 | 78 | 0.0 | 1.6 | 0.00 | 0.00 | 0.00 | 48 | 1006.1 |
| 20260504194537 | 20 | 348 | 9.7 | 12.9 | 0.00 | 0.00 | 0.00 | 48 | 1006.4 |
| 20260504194032 | 21 | 108 | 9.7 | 14.5 | 0.00 | 0.00 | 0.00 | 47 | 1006.1 |
| 20260504193529 | 20 | 284 | 11.3 | 14.5 | 0.00 | 0.00 | 0.00 | 48 | 1006.1 |
| 20260504193028 | 21 | 341 | 4.8 | 4.8 | 0.00 | 0.00 | 0.00 | 46 | 1006.4 |
| 20260504192526 | 20 | 86 | 1.6 | 3.2 | 0.00 | 0.00 | 0.00 | 46 | 1006.6 |
| 20260504192024 | 21 | 287 | 16.1 | 20.9 | 0.00 | 0.00 | 0.00 | 47 | 1006.4 |
| 20260504191521 | 21 | 77 | 3.2 | 3.2 | 0.00 | 0.00 | 0.00 | 46 | 1006.3 |
| 20260504191017 | 21 | 46 | 4.8 | 4.8 | 0.00 | 0.00 | 0.00 | 47 | 1007.0 |
| 20260504190513 | 20 | 342 | 12.9 | 14.5 | 0.00 | 0.00 | 0.00 | 47 | 1007.0 |
| 20260504190010 | 20 | 344 | 16.1 | 17.7 | 0.00 | 0.00 | 0.00 | 48 | 1006.7 |
| 20260504185507 | 21 | 248 | 14.5 | 20.9 | 0.00 | 0.00 | 0.00 | 46 | 1007.1 |
| 20260504185003 | 21 | 272 | 4.8 | 9.7 | 0.00 | 0.00 | 0.00 | 48 | 1006.8 |
| 20260504184459 | 21 | 331 | 12.9 | 17.7 | 0.00 | 0.00 | 0.00 | 44 | 1006.8 |
| 20260504183954 | 20 | 2 | 4.8 | 6.4 | 0.00 | 0.00 | 0.00 | 48 | 1007.1 |
| 20260504183452 | 20 | 303 | 9.7 | 12.9 | 0.00 | 0.00 | 0.00 | 48 | 1007.0 |
| 20260504182950 | 21 | 28 | 3.2 | 4.8 | 0.00 | 0.00 | 0.00 | 47 | 1007.1 |
| 20260504182446 | 21 | 322 | 4.8 | 9.7 | 0.00 | 0.00 | 0.00 | 47 | 1007.0 |
| 20260504181944 | 20 | 304 | 9.7 | 16.1 | 0.00 | 0.00 | 0.00 | 46 | 1007.1 |
| 20260504181440 | 20 | 342 | 9.7 | 12.9 | 0.00 | 0.00 | 0.00 | 46 | 1007.1 |
| 20260504180939 | 20 | 314 | 8.0 | 11.3 | 0.00 | 0.00 | 0.00 | 49 | 1007.3 |
| 20260504180438 | 21 | 283 | 9.7 | 12.9 | 0.00 | 0.00 | 0.00 | 46 | 1007.4 |
| 20260504175936 | 20 | 17 | 6.4 | 6.4 | 0.00 | 0.00 | 0.00 | 45 | 1007.4 |
| 20260504175432 | 20 | 132 | 4.8 | 4.8 | 0.00 | 0.00 | 0.00 | 46 | 1007.3 |
| 20260504174930 | 20 | 68 | 4.8 | 12.9 | 0.00 | 0.00 | 0.00 | 46 | 1007.6 |
| 20260504174428 | 20 | 346 | 8.0 | 20.9 | 0.00 | 0.00 | 0.00 | 47 | 1007.5 |
| 20260504173925 | 20 | 58 | 4.8 | 6.4 | 0.00 | 0.00 | 0.00 | 45 | 1007.5 |
| 20260504173421 | 20 | 330 | 19.3 | 25.7 | 0.00 | 0.00 | 0.00 | 45 | 1007.8 |
| 20260504172919 | 20 | 72 | 3.2 | 4.8 | 0.00 | 0.00 | 0.00 | 46 | 1007.8 |
| 20260504172415 | 19 | 275 | 11.3 | 12.9 | 0.00 | 0.00 | 0.00 | 46 | 1007.7 |
| 20260504171911 | 19 | 327 | 12.9 | 16.1 | 0.00 | 0.00 | 0.00 | 47 | 1007.8 |
| 20260504171408 | 19 | 11 | 3.2 | 4.8 | 0.00 | 0.00 | 0.00 | 48 | 1007.8 |
| 20260504170905 | 19 | 331 | 6.4 | 6.4 | 0.00 | 0.00 | 0.00 | 47 | 1007.9 |
| 20260504170401 | 19 | 267 | 17.7 | 25.7 | 0.00 | 0.00 | 0.00 | 48 | 1008.4 |
| 20260504160320 | 18 | 344 | 14.5 | 20.9 | 0.00 | 0.00 | 0.00 | 49 | 1008.9 |
| 20260504150745 | 16 | 81 | 1.6 | 3.2 | 0.00 | 0.00 | 0.00 | 49 | 1009.2 |
| 20260504150242 | 16 | 68 | 0.0 | 1.6 | 0.00 | 0.00 | 0.00 | 51 | 1009.0 |
| 20260504141211 | 13 | 14 | 3.2 | 3.2 | 0.00 | 0.00 | 0.00 | 53 | 1009.7 |
| 20260504140708 | 13 | 356 | 6.4 | 6.4 | 0.00 | 0.00 | 0.00 | 55 | 1009.6 |
| 20260504140203 | 13 | 56 | 3.2 | 3.2 | 0.00 | 0.00 | 0.00 | 55 | 1009.5 |
| 20260504130632 | 10 | 76 | 3.2 | 4.8 | 0.00 | 0.00 | 0.00 | 61 | 1009.9 |
| 20260504130129 | 10 | 337 | 3.2 | 3.2 | 0.00 | 0.00 | 0.00 | 61 | 1009.7 |
| 20260504110520 | 6 | 40 | 1.6 | 3.2 | 0.00 | 0.00 | 0.00 | 70 | 1009.8 |
| 20260504100442 | 6 | 42 | 3.2 | 4.8 | 0.00 | 0.00 | 0.00 | 72 | 1009.7 |
| 20260504081840 | 6 | 43 | 1.6 | 3.2 | 0.00 | 0.00 | 0.00 | 66 | 1010.4 |
| 20260504081337 | 6 | 60 | 3.2 | 3.2 | 0.00 | 0.00 | 0.00 | 66 | 1010.6 |
| 20260504080833 | 6 | 36 | 1.6 | 1.6 | 0.00 | 0.00 | 0.00 | 67 | 1010.4 |
| 20260504080330 | 6 | 46 | 0.0 | 0.0 | 0.00 | 0.00 | 0.00 | 67 | 1010.6 |
| 20260504070258 | 5 | 63 | 0.0 | 0.0 | 0.00 | 0.00 | 0.00 | 71 | 1010.5 |
| 20260504060218 | 2 | 57 | 0.0 | 0.0 | 0.00 | 0.00 | 0.00 | 82 | 1011.1 |
| 20260504050646 | 1 | 67 | 0.0 | 0.0 | 0.00 | 0.00 | 0.00 | 92 | 1011.5 |
| 20260504050143 | 1 | 68 | 0.0 | 0.0 | 0.00 | 0.00 | 0.00 | 93 | 1011.7 |
| 20260504045640 | 1 | 62 | 0.0 | 0.0 | 0.00 | 0.00 | 0.00 | 92 | 1011.5 |
| 20260504045140 | 1 | 62 | 0.0 | 0.0 | 0.00 | 0.00 | 0.00 | 92 | 1011.6 |
| 20260504044638 | 1 | 63 | 0.0 | 0.0 | 0.00 | 0.00 | 0.00 | 92 | 1011.4 |
| 20260504044135 | 1 | 62 | 0.0 | 0.0 | 0.00 | 0.00 | 0.00 | 92 | 1011.2 |
| 20260504043632 | 1 | 62 | 0.0 | 0.0 | 0.00 | 0.00 | 0.00 | 91 | 1011.7 |
| 20260504043129 | 1 | 62 | 0.0 | 0.0 | 0.00 | 0.00 | 0.00 | 90 | 1011.5 |
| 20260504042626 | 2 | 62 | 0.0 | 0.0 | 0.00 | 0.00 | 0.00 | 90 | 1011.4 |
| 20260504042123 | 2 | 53 | 0.0 | 1.6 | 0.00 | 0.00 | 0.00 | 89 | 1011.3 |
| 20260504041618 | 2 | 53 | 0.0 | 0.0 | 0.00 | 0.00 | 0.00 | 87 | 1011.4 |
| 20260504041115 | 2 | 53 | 0.0 | 0.0 | 0.00 | 0.00 | 0.00 | 85 | 1011.3 |
| 20260504040612 | 3 | 64 | 0.0 | 0.0 | 0.00 | 0.00 | 0.00 | 84 | 1011.3 |
| 20260504040109 | 3 | 69 | 0.0 | 0.0 | 0.00 | 0.00 | 0.00 | 79 | 1011.4 |
| 20260504035606 | 4 | 74 | 0.0 | 1.6 | 0.00 | 0.00 | 0.00 | 77 | 1011.5 |
| 20260504035102 | 4 | 72 | 1.6 | 1.6 | 0.00 | 0.00 | 0.00 | 78 | 1011.5 |
| 20260504034600 | 4 | 66 | 0.0 | 0.0 | 0.00 | 0.00 | 0.00 | 78 | 1011.4 |
| 20260504034057 | 4 | 73 | 1.6 | 1.6 | 0.00 | 0.00 | 0.00 | 74 | 1011.3 |
| 20260504033555 | 5 | 79 | 1.6 | 1.6 | 0.00 | 0.00 | 0.00 | 76 | 1011.2 |
| 20260504033052 | 5 | 47 | 1.6 | 1.6 | 0.00 | 0.00 | 0.00 | 72 | 1011.3 |
| 20260504032549 | 4 | 77 | 1.6 | 1.6 | 0.00 | 0.00 | 0.00 | 79 | 1011.3 |
| 20260504032045 | 5 | 71 | 0.0 | 0.0 | 0.00 | 0.00 | 0.00 | 79 | 1011.6 |
| 20260504031542 | 5 | 75 | 0.0 | 0.0 | 0.00 | 0.00 | 0.00 | 74 | 1011.4 |
| 20260504031038 | 5 | 69 | 0.0 | 0.0 | 0.00 | 0.00 | 0.00 | 70 | 1011.5 |
| 20260504030536 | 5 | 68 | 0.0 | 0.0 | 0.00 | 0.00 | 0.00 | 75 | 1011.6 |
| 20260504030032 | 5 | 72 | 0.0 | 0.0 | 0.00 | 0.00 | 0.00 | 72 | 1011.7 |
| 20260504025530 | 5 | 82 | 1.6 | 1.6 | 0.00 | 0.00 | 0.00 | 74 | 1011.5 |
| 20260504025026 | 6 | 72 | 0.0 | 0.0 | 0.00 | 0.00 | 0.00 | 68 | 1011.5 |
| 20260504024523 | 6 | 62 | 0.0 | 0.0 | 0.00 | 0.00 | 0.00 | 71 | 1011.6 |
| 20260504024020 | 5 | 66 | 0.0 | 0.0 | 0.00 | 0.00 | 0.00 | 70 | 1011.7 |
| 20260504023517 | 5 | 74 | 0.0 | 1.6 | 0.00 | 0.00 | 0.00 | 72 | 1011.6 |
| 20260504023012 | 6 | 69 | 1.6 | 1.6 | 0.00 | 0.00 | 0.00 | 68 | 1011.5 |
| 20260504022508 | 6 | 68 | 1.6 | 1.6 | 0.00 | 0.00 | 0.00 | 67 | 1011.6 |
| 20260504022005 | 6 | 70 | 0.0 | 0.0 | 0.00 | 0.00 | 0.00 | 67 | 1011.8 |
| 20260504021503 | 6 | 58 | 0.0 | 1.6 | 0.00 | 0.00 | 0.00 | 67 | 1011.5 |
| 20260504020959 | 6 | 72 | 0.0 | 0.0 | 0.00 | 0.00 | 0.00 | 69 | 1011.7 |
| 20260504020456 | 6 | 71 | 0.0 | 0.0 | 0.00 | 0.00 | 0.00 | 69 | 1011.5 |
| 20260504015953 | 6 | 77 | 0.0 | 0.0 | 0.00 | 0.00 | 0.00 | 70 | 1011.7 |
| 20260504015449 | 5 | 77 | 0.0 | 0.0 | 0.00 | 0.00 | 0.00 | 70 | 1011.6 |
| 20260504014945 | 5 | 84 | 1.6 | 1.6 | 0.00 | 0.00 | 0.00 | 71 | 1011.5 |
| 20260504014441 | 5 | 69 | 0.0 | 0.0 | 0.00 | 0.00 | 0.00 | 70 | 1011.5 |
| 20260504013938 | 5 | 69 | 0.0 | 0.0 | 0.00 | 0.00 | 0.00 | 70 | 1011.4 |
| 20260504013437 | 5 | 86 | 1.6 | 1.6 | 0.00 | 0.00 | 0.00 | 70 | 1011.4 |
| 20260504012932 | 6 | 73 | 0.0 | 0.0 | 0.00 | 0.00 | 0.00 | 71 | 1011.5 |
| 20260504012431 | 6 | 178 | 3.2 | 4.8 | 0.00 | 0.00 | 0.00 | 66 | 1011.4 |
| 20260504011928 | 6 | 67 | 0.0 | 0.0 | 0.00 | 0.00 | 0.00 | 68 | 1011.2 |
| 20260504011425 | 6 | 74 | 1.6 | 1.6 | 0.00 | 0.00 | 0.00 | 68 | 1011.1 |
| 20260504010920 | 6 | 71 | 0.0 | 0.0 | 0.00 | 0.00 | 0.00 | 69 | 1011.5 |
| 20260504010416 | 6 | 61 | 0.0 | 0.0 | 0.00 | 0.00 | 0.00 | 66 | 1011.2 |
| 20260504005913 | 6 | 72 | 0.0 | 0.0 | 0.00 | 0.00 | 0.00 | 67 | 1011.2 |
| 20260504005409 | 6 | 49 | 0.0 | 1.6 | 0.00 | 0.00 | 0.00 | 67 | 1011.2 |
| 20260504004908 | 7 | 64 | 0.0 | 0.0 | 0.00 | 0.00 | 0.00 | 65 | 1011.4 |
| 20260504004405 | 7 | 61 | 0.0 | 0.0 | 0.00 | 0.00 | 0.00 | 64 | 1011.4 |
| 20260504003901 | 7 | 70 | 0.0 | 0.0 | 0.00 | 0.00 | 0.00 | 63 | 1011.2 |
| 20260504003358 | 8 | 73 | 0.0 | 0.0 | 0.00 | 0.00 | 0.00 | 62 | 1011.1 |
| 20260504002854 | 8 | 61 | 0.0 | 0.0 | 0.00 | 0.00 | 0.00 | 58 | 1011.0 |
| 20260504002351 | 8 | 42 | 1.6 | 1.6 | 0.00 | 0.00 | 0.00 | 56 | 1011.3 |
| 20260504001849 | 9 | 32 | 0.0 | 1.6 | 0.00 | 0.00 | 0.00 | 56 | 1011.2 |
| 20260504001346 | 9 | 70 | 1.6 | 1.6 | 0.00 | 0.00 | 0.00 | 55 | 1011.3 |
| 20260504000843 | 9 | 46 | 0.0 | 0.0 | 0.00 | 0.00 | 0.00 | 57 | 1011.1 |
| 20260504000340 | 10 | 5 | 3.2 | 3.2 | 0.00 | 0.00 | 0.00 | 53 | 1011.3 |
| 20260503235837 | 10 | 13 | 3.2 | 3.2 | 0.00 | 0.00 | 0.00 | 52 | 1011.1 |
| 20260503235335 | 10 | 31 | 1.6 | 1.6 | 0.00 | 0.00 | 0.00 | 52 | 1010.9 |
| 20260503234832 | 10 | 334 | 4.8 | 4.8 | 0.00 | 0.00 | 0.00 | 50 | 1011.1 |
| 20260503234330 | 10 | 27 | 3.2 | 4.8 | 0.00 | 0.00 | 0.00 | 51 | 1011.3 |
| 20260503233828 | 10 | 329 | 4.8 | 6.4 | 0.00 | 0.00 | 0.00 | 50 | 1011.0 |
| 20260503233323 | 11 | 24 | 4.8 | 4.8 | 0.00 | 0.00 | 0.00 | 49 | 1010.9 |
| 20260503232820 | 11 | 320 | 3.2 | 4.8 | 0.00 | 0.00 | 0.00 | 50 | 1011.1 |
| 20260503232318 | 11 | 338 | 3.2 | 4.8 | 0.00 | 0.00 | 0.00 | 50 | 1011.0 |
| 20260503231815 | 11 | 305 | 4.8 | 4.8 | 0.00 | 0.00 | 0.00 | 48 | 1011.1 |
| 20260503231312 | 11 | 305 | 3.2 | 4.8 | 0.00 | 0.00 | 0.00 | 48 | 1011.3 |
| 20260503230808 | 11 | 11 | 4.8 | 4.8 | 0.00 | 0.00 | 0.00 | 47 | 1011.0 |
| 20260503230305 | 11 | 310 | 9.7 | 12.9 | 0.00 | 0.00 | 0.00 | 46 | 1011.2 |
| 20260503225803 | 11 | 31 | 1.6 | 1.6 | 0.00 | 0.00 | 0.00 | 49 | 1011.3 |
| 20260503225258 | 11 | 324 | 4.8 | 4.8 | 0.00 | 0.00 | 0.00 | 48 | 1011.3 |
| 20260503224755 | 11 | 347 | 3.2 | 3.2 | 0.00 | 0.00 | 0.00 | 48 | 1011.2 |
| 20260503224252 | 11 | 280 | 9.7 | 12.9 | 0.00 | 0.00 | 0.00 | 47 | 1011.1 |
| 20260503223750 | 11 | 318 | 4.8 | 6.4 | 0.00 | 0.00 | 0.00 | 47 | 1011.0 |
| 20260503223247 | 11 | 2 | 3.2 | 4.8 | 0.00 | 0.00 | 0.00 | 50 | 1011.2 |
| 20260503222743 | 11 | 283 | 9.7 | 12.9 | 0.00 | 0.00 | 0.00 | 46 | 1011.2 |
| 20260503222241 | 12 | 301 | 6.4 | 6.4 | 0.00 | 0.00 | 0.00 | 45 | 1011.0 |
| 20260503221739 | 11 | 31 | 3.2 | 3.2 | 0.00 | 0.00 | 0.00 | 47 | 1011.4 |
| 20260503221237 | 11 | 292 | 4.8 | 6.4 | 0.00 | 0.00 | 0.00 | 46 | 1011.1 |
| 20260503220733 | 11 | 298 | 9.7 | 11.3 | 0.00 | 0.00 | 0.00 | 47 | 1011.2 |
| 20260503220230 | 11 | 318 | 14.5 | 16.1 | 0.00 | 0.00 | 0.00 | 46 | 1011.1 |
| 20260503215727 | 12 | 28 | 8.0 | 9.7 | 0.00 | 0.00 | 0.00 | 46 | 1011.1 |
| 20260503215224 | 12 | 314 | 9.7 | 11.3 | 0.00 | 0.00 | 0.00 | 44 | 1011.2 |
| 20260503214722 | 12 | 321 | 8.0 | 9.7 | 0.00 | 0.00 | 0.00 | 47 | 1011.3 |
| 20260503214219 | 11 | 30 | 1.6 | 1.6 | 0.00 | 0.00 | 0.00 | 48 | 1011.2 |
| 20260503213717 | 11 | 323 | 3.2 | 3.2 | 0.00 | 0.00 | 0.00 | 48 | 1011.2 |
| 20260503213214 | 11 | 286 | 6.4 | 6.4 | 0.00 | 0.00 | 0.00 | 46 | 1011.3 |
| 20260503212710 | 11 | 278 | 6.4 | 6.4 | 0.00 | 0.00 | 0.00 | 47 | 1011.3 |
| 20260503212208 | 11 | 305 | 8.0 | 9.7 | 0.00 | 0.00 | 0.00 | 45 | 1011.1 |
| 20260503211706 | 12 | 313 | 11.3 | 16.1 | 0.00 | 0.00 | 0.00 | 45 | 1011.3 |
| 20260503211201 | 12 | 332 | 3.2 | 4.8 | 0.00 | 0.00 | 0.00 | 45 | 1011.2 |
| 20260503210657 | 11 | 302 | 4.8 | 6.4 | 0.00 | 0.00 | 0.00 | 46 | 1011.1 |
| 20260503210155 | 11 | 282 | 6.4 | 9.7 | 0.00 | 0.00 | 0.00 | 45 | 1011.1 |
| 20260503205650 | 11 | 301 | 8.0 | 11.3 | 0.00 | 0.00 | 0.00 | 46 | 1011.3 |
| 20260503205146 | 12 | 304 | 6.4 | 6.4 | 0.00 | 0.00 | 0.00 | 44 | 1011.3 |